Arad, Romania

3:24 PM EET on February 21, 2017 (GMT +0200)
Arad

Weather History for LRAR - May, 2013

Change the Weather History Date:

Thursday, May 23, 2013

  Actual Average Record
Temperature  
Mean Temperature 54 °F -  
Max Temperature 57 °F 76 °F 87 °F (2006)
Min Temperature 51 °F 54 °F 39 °F (1998)
Degree Days  
Heating Degree Days 11    
Growing Degree Days 4 (Base 50)    
Moisture  
Dew Point 54 °F    
Average Humidity 97    
Maximum Humidity 100    
Minimum Humidity 85    
Precipitation  
Precipitation 0.08 in - - ()
Sea Level Pressure  
Sea Level Pressure 29.57 in    
Wind  
Wind Speed 7 mph ()    
Max Wind Speed 16 mph    
Max Gust Speed -    
Visibility 6.9 miles    
Events Rain    
Averages and records for this station are not official NWS values.
T = Trace of Precipitation, MM = Missing Value Source: Averaged Metar Reports

Daily Weather History Graph

Daily Weather History Graph

Search for Another Location

Airport or City:

Trip Planner

Search our weather history database for the weather conditions in past years. The results will help you decide how hot, cold, wet, or windy it might be!

Date:

Astronomy

May. 23, 2013 Rise Set
Actual Time 5:53 AM EEST 9:10 PM EEST
Civil Twilight 5:17 AM EEST 9:46 PM EEST
Nautical Twilight 4:30 AM EEST 10:34 PM EEST
Astronomical Twilight 3:30 AM EEST 11:34 PM EEST
Moon 7:15 PM EEST (5/23) 4:32 AM EEST (5/23)
Length of Visible Light 16h 29m
Length of Day
15h 16m
Waxing Gibbous, 95% of the Moon is Illuminated
May 23
Waxing Gibbous
May 25
Full
May 31
Last Quarter
Jun 8
New
Jun 16
First Quarter

Hourly Weather History & Observations

Time (EEST) Temp. Dew Point Humidity Pressure Visibility Wind Dir Wind Speed Gust Speed Precip Events Conditions
12:00 AM 55 °F 54 °F 93% 29.74 in 12 mi NNE 2.2 mph - -   Overcast
12:00 AM 55.4 °F 55.4 °F 100% 29.71 in - East 2.3 mph - N/A   Clear
1:00 AM 54 °F 53 °F 97% 29.71 in 12 mi North 2.2 mph - -   Overcast
1:00 AM 53.6 °F 53.6 °F 100% 29.71 in - NE 4.6 mph - N/A   Clear
2:00 AM 54 °F 53 °F 95% 29.70 in 12 mi North 2.2 mph - -   Overcast
2:00 AM 53.6 °F 53.6 °F 100% 29.68 in - NNE 5.8 mph - N/A   Clear
3:00 AM 54 °F 53 °F 96% 29.67 in 12 mi North 6.7 mph - -   Overcast
3:00 AM 53.6 °F 53.6 °F 100% 29.65 in - North 5.8 mph - N/A   Clear
4:00 AM 54 °F 53 °F 95% 29.66 in 12 mi North 4.5 mph - -   Overcast
4:00 AM 53.6 °F 53.6 °F 100% 29.65 in - NNE 3.5 mph - N/A   Clear
5:00 AM 53 °F 52 °F 96% 29.65 in 12 mi North 2.2 mph - -   Overcast
5:00 AM 53.6 °F 53.6 °F 100% 29.62 in - Variable 1.2 mph - N/A   Clear
5:30 AM 53.6 °F 53.6 °F 100% 29.62 in 6.2 mi North 3.5 mph - N/A   Partly Cloudy
6:00 AM 54 °F 52 °F 90% 29.62 in 12 mi NNW 4.5 mph - -   Overcast
6:00 AM 53.6 °F 53.6 °F 100% 29.62 in 6.2 mi North 4.6 mph - N/A   Partly Cloudy
6:30 AM 53.6 °F 53.6 °F 100% 29.62 in 6.2 mi NE 4.6 mph - N/A Rain Light Rain Showers
7:00 AM 53 °F 52 °F 95% 29.63 in 6 mi NW 2.2 mph - - Rain Light Rain
7:00 AM 53.6 °F 53.6 °F 100% 29.59 in 6.2 mi NNE 6.9 mph - N/A Rain Light Rain Showers
7:30 AM 53.6 °F 53.6 °F 100% 29.56 in 6.2 mi North 11.5 mph - N/A Rain Light Rain
8:00 AM 53 °F 51 °F 91% 29.57 in 6 mi NNW 6.7 mph - - Rain Light Rain Showers
8:00 AM 53.6 °F 53.6 °F 100% 29.56 in 6.2 mi NNE 12.7 mph - N/A Rain Light Rain
8:30 AM 53.6 °F 53.6 °F 100% 29.53 in 6.2 mi North 11.5 mph - N/A Rain Light Rain
9:00 AM 53 °F 52 °F 93% 29.56 in 12 mi NNE 4.5 mph - - Rain Light Rain Showers
9:00 AM 53.6 °F 53.6 °F 100% 29.56 in 6.2 mi NNE 11.5 mph - N/A   Scattered Clouds
9:30 AM 53.6 °F 53.6 °F 100% 29.53 in 6.2 mi NNE 9.2 mph - N/A   Scattered Clouds
10:00 AM 54 °F 52 °F 89% 29.55 in 12 mi North 8.9 mph - -   Overcast
10:00 AM 55.4 °F 55.4 °F 100% 29.53 in 6.2 mi North 10.4 mph - N/A   Scattered Clouds
10:30 AM 55.4 °F 55.4 °F 100% 29.53 in 6.2 mi North 13.8 mph - N/A   Scattered Clouds
11:00 AM 56 °F 53 °F 86% 29.54 in 12 mi North 8.9 mph - -   Overcast
11:00 AM 57.2 °F 57.2 °F 100% 29.53 in 6.2 mi North 12.7 mph - N/A   Mostly Cloudy
11:30 AM 57.2 °F 57.2 °F 100% 29.53 in 6.2 mi North 13.8 mph - N/A   Mostly Cloudy
12:00 PM 56 °F 53 °F 86% 29.53 in 6 mi North 8.9 mph - - Rain Light Rain Showers
12:00 PM 57.2 °F 57.2 °F 100% 29.53 in 6.2 mi North 15.0 mph - N/A Rain Light Rain Showers
12:30 PM 57.2 °F 57.2 °F 100% 29.53 in 6.2 mi NNE 15.0 mph - N/A   Mostly Cloudy
1:00 PM 57 °F 54 °F 87% 29.52 in 6 mi North 8.9 mph - - Rain Light Rain Showers
1:00 PM 57.2 °F 57.2 °F 100% 29.50 in 6.2 mi NNE 16.1 mph - N/A   Mostly Cloudy
1:30 PM 57.2 °F 57.2 °F 100% 29.50 in 6.2 mi North 16.1 mph - N/A Rain Light Rain Showers
2:00 PM 56 °F 54 °F 90% 29.52 in 6 mi North 8.9 mph - - Rain Light Rain Showers
2:00 PM 57.2 °F 57.2 °F 100% 29.50 in 6.2 mi North 15.0 mph - N/A Rain Light Rain
2:30 PM 57.2 °F 57.2 °F 100% 29.50 in 6.2 mi North 12.7 mph - N/A Rain Light Rain
3:00 PM 57 °F 55 °F 89% 29.51 in 6 mi North 6.7 mph - - Rain Light Rain Showers
3:00 PM 57.2 °F 57.2 °F 100% 29.50 in 5.6 mi NNW 13.8 mph - N/A Rain Light Rain
3:30 PM - - N/A% 29.50 in 6.2 mi North 16.1 mph - N/A   Light Drizzle
4:00 PM 58 °F 55 °F 85% 29.50 in 6 mi NNW 6.7 mph - -   Overcast
4:00 PM 57.2 °F 57.2 °F 100% 29.50 in 6.2 mi NNW 15.0 mph - N/A   Overcast
4:30 PM 57.2 °F 57.2 °F 100% 29.50 in 6.2 mi North 16.1 mph - N/A   Overcast
5:00 PM 57 °F 54 °F 86% 29.51 in 6 mi NNW 6.7 mph - -   Overcast
5:00 PM 57.2 °F 57.2 °F 100% 29.50 in 6.2 mi North 15.0 mph - N/A   Overcast
5:30 PM 55.4 °F 55.4 °F 100% 29.53 in 6.2 mi North 15.0 mph - N/A   Overcast
6:00 PM 56 °F 54 °F 92% 29.52 in 6 mi NNW 6.7 mph - -   Overcast
6:00 PM 55.4 °F 55.4 °F 100% 29.53 in 6.2 mi North 12.7 mph - N/A   Light Drizzle
6:30 PM 55.4 °F 55.4 °F 100% 29.53 in 6.2 mi North 12.7 mph - N/A   Light Drizzle
7:00 PM 55 °F 53 °F 92% 29.53 in 6 mi NNW 4.5 mph - -   Overcast
7:00 PM 55.4 °F 55.4 °F 100% 29.53 in 5.0 mi NNW 10.4 mph - N/A Rain Light Rain
7:30 PM 53.6 °F 53.6 °F 100% 29.53 in 5.0 mi NNW 12.7 mph - N/A Rain Light Rain
8:00 PM 55 °F 53 °F 92% 29.54 in 6 mi NNW 4.5 mph - -   Overcast
8:00 PM 53.6 °F 53.6 °F 100% 29.53 in 5.0 mi NNW 9.2 mph - N/A Rain Light Rain
8:30 PM 53.6 °F 53.6 °F 100% 29.53 in 4.3 mi NNW 9.2 mph - N/A   Overcast
9:00 PM 54 °F 52 °F 92% 29.55 in 6 mi NW 4.5 mph - -   Overcast
9:00 PM 53.6 °F 53.6 °F 100% 29.56 in 3.1 mi NNW 9.2 mph - N/A   Light Drizzle
10:00 PM 54 °F 53 °F 94% 29.57 in 6 mi NW 4.5 mph - -   Overcast
10:00 PM 51.8 °F 51.8 °F 100% 29.56 in 2.5 mi NW 9.2 mph - N/A   Drizzle
11:00 PM 53 °F 52 °F 94% 29.59 in 6 mi WNW 2.2 mph - -   Overcast
11:00 PM 53.6 °F 53.6 °F 100% 29.59 in 4.3 mi NW 6.9 mph - N/A   Mostly Cloudy